Flight Track Log - Related Links

Times and Time Zones

All times are in EDT time to prevent confusion due to time zone crossing. See the AWI4084 flight status page for this flight to view local times or setup timezone preferences in your user account.

Time Position Orientation Groundspeed Altitude Reporting Facility
EDT Latitude Longitude Course Direction KTS MPH feet Rate Location/Type
03:44PM 38.8833 -77.0667 346° North 184 212 2,300  Level Potomac TRACON
03:46PM 39.0932 -77.1651 336° Northwest  Level FlightAware Approximate
03:46PM 38.9719 -77.1694 318° Northwest 235 270 6,700  Level Washington Center
03:47PM 39.1763 -77.2126 336° Northwest  Level FlightAware Approximate
03:47PM 38.9997 -77.2556 293° West 247 284 9,500  Level Washington Center
03:48PM 39.2623 -77.2494 337° Northwest  Level FlightAware Approximate
03:48PM 39.0278 -77.3525 290° West 266 306 10,900  Level Washington Center
03:49PM 39.3459 -77.2958 337° Northwest  Level FlightAware Approximate
03:49PM 39.0572 -77.4575 290° West 299 344 12,600  Level Washington Center
03:50PM 39.4319 -77.3328 346° North  Level FlightAware Approximate
03:50PM 39.1400 -77.4969 340° North 291 335 14,000  Level Washington Center
03:51PM 39.2425 -77.4864 North 291 335 15,700 1,462 Climbing Washington Center
03:52PM 39.3425 -77.4781 North 329 379 16,900 1,253 Climbing Washington Center
03:54PM 39.5272 -77.4656 North 385 443 19,000 1,163 Climbing New York Center
03:55PM 39.6300 -77.4564 North 385 443 20,000 1,041 Climbing New York Center
03:56PM 39.7383 -77.4558 360° North 385 443 21,100 942 Climbing New York Center
03:57PM 39.8422 -77.4306 11° North 385 443 21,900 800 Climbing New York Center
03:58PM 39.9456 -77.3728 23° Northeast 393 452 22,700 756 Climbing New York Center
03:59PM 40.0508 -77.3147 23° Northeast 393 452 23,400 655 Climbing New York Center
04:00PM 40.1494 -77.2642 21° North 398 458 24,000 595 Climbing New York Center
04:01PM 40.2550 -77.2061 23° Northeast 405 466 24,600 500 Climbing New York Center
04:02PM 40.3603 -77.1478 23° Northeast 405 466 25,000 202 Climbing New York Center
04:03PM 40.4719 -77.0872 22° Northeast 411 473 25,000  Level New York Center
04:04PM 40.5814 -77.0289 22° Northeast 416 479 25,000  Level New York Center
04:05PM 40.6844 -76.9697 24° Northeast 411 473 25,000  Level New York Center
04:06PM 40.7875 -76.9133 23° Northeast 401 461 25,000  Level New York Center
04:07PM 40.8861 -76.8592 23° Northeast 396 456 25,000  Level New York Center
04:08PM 40.9867 -76.8050 22° Northeast 391 450 25,000 -458 Level New York Center
04:09PM 41.0875 -76.7506 22° Northeast 386 444 24,100 -1,017 Descending New York Center
04:10PM 41.1883 -76.6906 24° Northeast 391 450 23,000 -545 Descending New York Center
04:11PM 41.2889 -76.6386 21° North 391 450 23,000  Level New York Center
04:12PM 41.3875 -76.5808 24° Northeast 384 442 23,000  Level New York Center
04:13PM 41.4839 -76.5281 22° Northeast 384 442 23,000 -248 Level New York Center
04:14PM 41.5889 -76.4678 23° Northeast 379 436 22,500 -756 Descending New York Center
04:15PM 41.6831 -76.4119 24° Northeast 379 436 21,500 -1,068 Descending New York Center
04:16PM 41.7817 -76.3564 23° Northeast 374 430 20,400 -1,041 Descending New York Center
04:17PM 41.8800 -76.3006 23° Northeast 374 430 19,400 -1,289 Descending New York Center
04:18PM 41.9719 -76.2469 23° Northeast 368 423 17,800 -1,884 Descending New York Center
04:19PM 42.0619 -76.1928 24° Northeast 358 412 15,600 -2,331 Descending New York Center
04:20PM 42.1472 -76.1467 22° Northeast 345 397 13,100 -1,815 Descending New York Center
04:21PM 42.2333 -76.1342 North 324 373 12,000 -908 Descending New York Center
04:22PM 42.3206 -76.1328 North 313 360 11,300 -397 Descending New York Center
04:23PM 42.4239 -76.1306 North 280 322 11,100 -126 Descending Boston Center
04:24PM 42.5114 -76.1303 360° North 294 338 11,000 -99 Descending Boston Center
04:25PM 42.5886 -76.1236 North 303 349 10,900 -1,096 Descending Boston Center
04:26PM 42.6647 -76.0969 14° North 281 323 8,900 -1,967 Descending Boston Center
04:27PM 42.7381 -76.0786 10° North 269 310 6,900 -1,930 Descending Boston Center
04:28PM 42.8056 -76.0628 10° North 259 298 5,200 -1,513 Descending Boston Center
04:29PM 42.8767 -76.0472 North 255 293 4,000 -645 Descending Boston Center
04:30PM 42.9461 -76.0286 11° North 232 267 3,900 -100 Descending Boston Center

Login

Don't have an account? Register now (free) for customized features, flight alerts, and more!